Home   Weather   Taiohae   Past weeks

Flag for French Polynesia Past Weather in Taiohae, Marquesas Islands, French Polynesia — Yesterday and Last 2 Weeks

Now
79 °F

Overcast.


Feels Like: 83 °F
Forecast: 77 / 84 °F
Wind: 9 mph from Southeast

Location: Atuona

Current Time: Jul 21, 2017 at 5:17:22 pm

Latest Report: Jul 21, 2017 at 4:30 pm


Visibility: 13 mi

Pressure: 29.87 "Hg

Humidity: 82%

Dew Point: 73 °F

Location of TaiohaeLocation

Past Weather in Taiohae — Graph

°F

Taiohae Temperature Yesterday

Maximum temperature yesterday: 83 °F (at 10:30 am)
Minimum temperature yesterday: 76 °F (at 7:30 am)
Average temperature yesterday: 80 °F

High & Low Weather Summary for the Past Weeks

 TemperatureHumidityPressure
High86 °F (Jul 9, 10:30 am)95% (Jul 17, 6:30 am)30.03 "Hg (Jul 17, 6:30 am)
Low72 °F (Jul 9, 6:30 am)49% (Jul 9, 10:30 am)29.82 "Hg (Jul 9, 3:30 pm)
Average79 °F77%29.93 "Hg
* Reported Jul 6 3:30 pm — Jul 21 3:30 pm, Taiohae. Weather by CustomWeather, © 2017

Note: Actual official high and low records may vary slightly from our data, if they occured in-between our weather recording intervals... More about our weather records

Advertising

Taiohae Weather History for the Previous 24 Hours

Scroll right to see more
 ConditionsComfort  
Time TempWeatherWind HumidityBarometerVisibility
3:30 pm
Fri, Jul 21
79 °FPartly sunny.12 mph80%29.87 "Hg19 mi
2:30 pm82 °FOvercast.13 mph71%29.87 "Hg6 mi
1:30 pm82 °FScattered clouds.13 mph72%29.89 "Hg19 mi
12:30 pm82 °FScattered clouds.10 mph73%29.92 "Hg19 mi
11:30 am83 °FScattered clouds.12 mph65%29.95 "Hg19 mi
10:30 am83 °FPartly sunny.12 mph66%29.97 "Hg19 mi
9:30 am81 °FPartly sunny.14 mph64%29.99 "Hg19 mi
8:30 am82 °FPassing clouds.10 mph66%29.98 "Hg19 mi
7:30 am80 °FPartly sunny.12 mph71%29.97 "Hg16 mi
6:30 am77 °FPartly sunny.9 mph80%29.94 "Hg16 mi
5:30 am77 °FPassing clouds.8 mph83%29.92 "Hg16 mi
4:30 am75 °FMild.3 mph87%29.90 "HgN/A
3:30 am76 °FMild.3 mph91%29.89 "HgN/A
2:30 am75 °FMild.6 mph87%29.90 "HgN/A
1:30 am76 °FMild.15 mph92%29.92 "HgN/A
12:30 am77 °FMild.3 mph87%29.93 "HgN/A
11:30 pm
Thu, Jul 20
79 °FWarm.14 mph82%29.94 "HgN/A
10:30 pm78 °FWarm.12 mph88%29.96 "HgN/A
9:30 pm80 °FWarm.16 mph79%29.95 "HgN/A
8:30 pm80 °FWarm.14 mph74%29.96 "HgN/A
7:30 pm80 °FWarm.12 mph74%29.94 "HgN/A
6:30 pm80 °FWarm.13 mph72%29.93 "HgN/A
5:30 pm80 °FWarm.10 mph70%29.92 "HgN/A
Weather by CustomWeather, © 2017

See weather overviewHow to use our weather pages